This is the latest recevied weather packets stored in our database for station/object IZ1GCT. If no packets are shown the sender has not sent any weather packets the latest 10 day(s).
| Time | Temp. | Humidity | Pressure | Rain* | Wind** | Luminosity | Snow |
|---|---|---|---|---|---|---|---|
| 1778163942 | 20.56° C | 45% | 1014.8 hPa | 0 mm | - | - | - |
| 1778163642 | 20.56° C | 46% | 1014.7 hPa | 0 mm | - | - | - |
| 1778163343 | 20.56° C | 45% | 1014.7 hPa | 0 mm | - | - | - |
| 1778163043 | 20.56° C | 45% | 1014.7 hPa | 0 mm | - | - | - |
| 1778162743 | 20.56° C | 44% | 1014.9 hPa | 0 mm | - | - | - |
| 1778162442 | 20° C | 46% | 1014.8 hPa | 0 mm | - | - | - |
| 1778162142 | 20° C | 45% | 1014.9 hPa | 0 mm | - | - | - |
| 1778161843 | 20.56° C | 46% | 1014.9 hPa | 0 mm | - | - | - |
| 1778161542 | 20° C | 46% | 1014.8 hPa | 0 mm | - | - | - |
| 1778161243 | 20.56° C | 45% | 1014.9 hPa | 0 mm | - | - | - |
| 1778160941 | 20.56° C | 45% | 1014.9 hPa | 0 mm | - | - | - |
| 1778160643 | 20° C | 44% | 1015 hPa | 0 mm | - | - | - |
| 1778160342 | 20.56° C | 43% | 1014.9 hPa | 0 mm | - | - | - |
| 1778160041 | 20.56° C | 43% | 1014.9 hPa | 0 mm | - | - | - |
| 1778159743 | 21.11° C | 43% | 1015.1 hPa | 0 mm | - | - | - |
| 1778159442 | 20.56° C | 42% | 1014.9 hPa | 0 mm | - | - | - |
| 1778159142 | 21.11° C | 46% | 1015 hPa | 0 mm | - | - | - |
| 1778158843 | 20.56° C | 46% | 1015.1 hPa | 0 mm | - | - | - |
| 1778158543 | 20.56° C | 43% | 1015.1 hPa | 0 mm | - | - | - |
| 1778158242 | 20.56° C | 43% | 1015.2 hPa | 0 mm | - | - | - |
| 1778157943 | 20° C | 44% | 1015.1 hPa | 0 mm | - | - | - |
| 1778157642 | 20.56° C | 44% | 1015.2 hPa | 0 mm | - | - | - |
| 1778157342 | 20° C | 45% | 1015.3 hPa | 0 mm | - | - | - |
| 1778157043 | 20.56° C | 44% | 1015.2 hPa | 0 mm | - | - | - |
| 1778156743 | 20° C | 47% | 1015.3 hPa | 0 mm | - | - | - |
* Rain latest hour (hover to see other rain measurements)
** Current wind speed in m/s (hover to see current wind gust speed)